Location: �clusier
(49.9361°N, 2.7869°E)
Time: 22:39:25
(UTC+00:00)

FALCON 9 DEB - Pass Details

Date: 16 June 2021
Orbit: 422 x 432 km, 53.0° (Epoch: 01 August)

Event Time Altitude Azimuth Distance (km) Brightness Sun altitude
Rises 21:17:30 0° 220° (SW) 2,390 6.7 -9.3°
Reaches altitude 10° 21:19:43 10° 210° (SSW) 1,525 5.6 -9.5°
Maximum altitude 21:22:50 34° 145° (SE) 735 3.7 -9.8°
Drops below altitude 10° 21:25:58 10° 79° (ENE) 1,526 5.7 -10.1°
Sets 21:28:11 0° 70° (ENE) 2,393 6.8 -10.3°
